sat.trackr.live / text

‹ back to catalog

STARLINK-34801

NORAD 66076 · 2025-235U

PAYLOAD ACTIVE UNKNOWN

§ Identity

Operator
Country
US
Launch date
2025-10-19
Launch site
AFETR
Launch vehicle
Mass (kg)
RCS (m²)

Purposes: comms

External: N2YO · Heavens-Above · Gunter

§ Orbital elements

Epoch: 2026-09-20T14:36:14.361120Z

Period
93.85 min
Inclination
53.1594°
Eccentricity
0.0001151
Mean motion
15.34398536 rev/d
Perigee alt
461.9 km
Apogee alt
463.5 km
Semi-major
6,840.8 km
B*
3.6346e-4
RAAN
59.2404°
Arg perigee
89.0302°
Mean anomaly
271.0832°
Rev number
5,277

§ Raw data

STARLINK-348011 66076U 25235U   26263.60849955  .00011923  00000+0  36346-3 0  99972 66076  53.1594  59.2404 0001151  89.0302 271.0832 15.34398536 52779

JSON: /api/v1/satellites/66076 · /tle

For live sub-satellite position, see the globe view (requires WebGL).

§ Visibility from observer

Set your observer location to see the next 7 days of passes ≥ 10°. The values pass through the URL so the page stays shareable.

No JS? Fill the form by hand. The geolocation button needs JavaScript.